Change the Weather History Date:

Friday, February 28, 2014

  Actual Average Record
Temperature  
Mean Temperature 43 °F 35 °F  
Max Temperature 53 °F 44 °F 68 °F (1980)
Min Temperature 33 °F 26 °F 2 °F (1993)
Degree Days  
Heating Degree Days 22 30  
Month to date heating degree days 821 961  
Since 1 July heating degree days 4668 4887  
Cooling Degree Days 0 0  
Month to date cooling degree days 0 0  
Year to date cooling degree days 0 0  
Moisture  
Dew Point 34 °F    
Average Humidity 69    
Maximum Humidity 92    
Minimum Humidity 46    
Precipitation  
Precipitation T in 0.04 in 0.66 in (1972)
Month to date precipitation 1.60 0.88  
Year to date precipitation 2.34 1.94  
Sea Level Pressure  
Sea Level Pressure 29.61 in    
Wind  
Wind Speed 8 mph (SE)    
Max Wind Speed 24 mph    
Max Gust Speed 28 mph    
Visibility 10 miles    
Events      
T = Trace of Precipitation, MM = Missing Value Source: NWS Daily Summary

Daily Weather History Graph

Daily Weather History Graph

Search for Another Location

Airport or City:

Trip Planner

Search our weather history database for the weather conditions in past years. The results will help you decide how hot, cold, wet, or windy it might be!

Date:

Astronomy

Feb. 28, 2014 Rise Set
Actual Time 7:15 AM MST 6:26 PM MST
Civil Twilight 6:46 AM MST 6:54 PM MST
Nautical Twilight 6:13 AM MST 7:27 PM MST
Astronomical Twilight 5:41 AM MST 8:00 PM MST
Moon 6:32 AM MST (2/28) 6:08 PM MST (2/28)
Length of Visible Light 12h 08m
Length of Day
11h 11m
Waning Crescent, 0% of the Moon is Illuminated
Feb 28
Waning Crescent
Mar 1
New
Mar 8
First Quarter
Mar 16
Full
Mar 23
Last Quarter

Hourly Weather History & Observations

Time (MST) Temp. Windchill Dew Point Humidity Pressure Visibility Wind Dir Wind Speed Gust Speed Precip Events Conditions
12:53 AM 37.0 °F 31.6 °F 32.0 °F 82% 29.77 in 10.0 mi SW 6.9 mph - N/A   Clear
1:53 AM 35.1 °F 30.1 °F 32.0 °F 89% 29.77 in 10.0 mi WSW 5.8 mph - N/A   Clear
2:53 AM 37.0 °F 31.6 °F 33.1 °F 86% 29.75 in 10.0 mi South 6.9 mph - N/A   Clear
3:53 AM 36.0 °F 31.1 °F 33.1 °F 89% 29.75 in 10.0 mi South 5.8 mph - N/A   Clear
4:53 AM 35.1 °F 30.1 °F 33.1 °F 92% 29.75 in 10.0 mi SSE 5.8 mph - N/A   Overcast
5:53 AM 35.1 °F 32.2 °F 33.1 °F 92% 29.75 in 10.0 mi SE 3.5 mph - N/A   Overcast
6:53 AM 36.0 °F 33.3 °F 33.1 °F 89% 29.75 in 10.0 mi SSE 3.5 mph - N/A   Overcast
7:53 AM 37.0 °F 31.6 °F 34.0 °F 89% 29.75 in 10.0 mi SE 6.9 mph - N/A   Overcast
8:53 AM 42.1 °F 40.2 °F 33.1 °F 70% 29.73 in 10.0 mi SE 3.5 mph - N/A   Mostly Cloudy
9:53 AM 45.0 °F 42.6 °F 33.1 °F 63% 29.70 in 10.0 mi SSE 4.6 mph - N/A   Clear
10:53 AM 46.9 °F - 33.1 °F 59% 29.70 in 10.0 mi SE 5.8 mph - N/A   Clear
11:53 AM 48.9 °F - 34.0 °F 56% 29.66 in 10.0 mi ENE 4.6 mph - N/A   Clear
12:53 PM 51.1 °F - 34.0 °F 52% 29.62 in 10.0 mi North - - N/A   Clear
1:53 PM 51.1 °F - 34.0 °F 52% 29.59 in 10.0 mi ENE 6.9 mph - N/A   Mostly Cloudy
2:53 PM 52.0 °F - 34.0 °F 50% 29.57 in 10.0 mi ENE 4.6 mph - N/A   Overcast
3:53 PM 53.1 °F - 33.1 °F 47% 29.57 in 10.0 mi North 5.8 mph - N/A   Overcast
4:53 PM 48.9 °F - 34.0 °F 56% 29.59 in 10.0 mi SSE 19.6 mph 26.5 mph N/A   Overcast
5:53 PM 46.0 °F 40.6 °F 37.0 °F 71% 29.57 in 10.0 mi SE 11.5 mph - 0.00 in   Overcast
6:53 PM 44.1 °F 37.7 °F 36.0 °F 73% 29.55 in 10.0 mi SE 12.7 mph - N/A   Partly Cloudy
7:53 PM 43.0 °F 35.7 °F 37.0 °F 80% 29.54 in 10.0 mi ESE 15.0 mph - N/A   Mostly Cloudy
8:53 PM 42.1 °F 34.9 °F 36.0 °F 79% 29.45 in 10.0 mi ENE 13.8 mph - N/A   Mostly Cloudy
9:08 PM 41.0 °F 31.6 °F 36.0 °F 82% 29.39 in 10.0 mi NNE 20.7 mph 25.3 mph N/A   Partly Cloudy
9:34 PM 42.1 °F 34.2 °F 36.0 °F 79% 29.47 in 10.0 mi ESE 16.1 mph - N/A   Clear
9:50 PM 41.0 °F 34.7 °F 35.6 °F 81% 29.48 in 10.0 mi East 10.4 mph - N/A   Clear
9:53 PM 41.0 °F 34.7 °F 35.1 °F 79% 29.47 in 10.0 mi East 10.4 mph - N/A   Clear
10:53 PM 44.1 °F 41.5 °F 36.0 °F 73% 29.45 in 10.0 mi SE 4.6 mph - N/A   Overcast
11:53 PM 42.1 °F 36.1 °F 35.1 °F 76% 29.42 in 10.0 mi SSE 10.4 mph - N/A   Mostly Cloudy